Content
SEND FEEDBACK

Daily
Averages
Monthly
Summary
United States of America

MOORCROFT, WYOMING


Home > North America > United States > Wyoming
Elevation: 4277 feet     Latitude: 44 16N     Longitude: 104 57W

WEATHER
 
SELECT A DAY
Number of Records: 227,775;   Date Range: 1/1/95 - 7/26/14
 
SHARE

PRINT THIS DATA

[ ← Previous Day ]
WEATHER ALMANAC - JANUARY 23, 2013
[ Next Day → ]
[ °C ]   °F
Weather ElementAverageHighLow
Temperature25.4 °F33.1 °F (1:53 pm)16 °F (7:53 am)
Dewpoint16 °F21 °F (2:53 pm)10.9 °F (5:53 am)
Humidity68 %84 % (7:53 am)54 % (12:53 pm)
Barometer30.15 in30.24 in (9:53 am)30.05 in (11:53 pm)
Wind Speed5.3 mph21.9 mph (10:53 pm)
Wind Gust33.4 mph (10:53 pm)
Weather ElementAverage
Visibility10 mi
Wind DirectionENE (72.6 °)

Weather ElementTotal
Precipitation---
Heating Degree Days40.5 (Base 65)
Averaged from 23 records on January 23, 2013
WEATHER CONDITIONS BREAKOUT
WIND DIRECTION BREAKOUT
WEATHER BY HOUR - JANUARY 23, 2013
[ °C ]   °F
Local TimeTemperatureDewpointHumidityBarometerVisibilityWind DirectionWind SpeedGust SpeedPrecipitationEventsConditions
1:53 AM25.0 °F12.0 °F58 %30.07 in10.0 miCalmClear
2:53 AM24.1 °F12.0 °F60 %30.09 in10.0 miCalmClear
3:53 AM23.0 °F14.0 °F68 %30.10 in10.0 miCalmClear
4:53 AM21.0 °F14.0 °F74 %30.14 in10.0 miCalmClear
5:53 AM17.1 °F10.9 °F77 %30.16 in10.0 miSW (230°)4.6 mphClear
6:53 AM18.0 °F10.9 °F74 %30.19 in10.0 miCalmClear
7:53 AM16.0 °F12.0 °F84 %30.23 in10.0 miCalmClear
8:53 AM24.1 °F17.1 °F75 %30.23 in10.0 miCalmClear
9:53 AM27.0 °F17.1 °F66 %30.24 in10.0 miCalmClear
10:53 AM28.0 °F17.1 °F63 %30.24 in10.0 miCalmClear
11:53 AM30.9 °F17.1 °F57 %30.20 in10.0 miCalmClear
12:53 PM32.0 °F17.1 °F54 %30.19 in10.0 miNNE (30°)3.5 mphClear
1:53 PM33.1 °F19.0 °F56 %30.17 in10.0 miNNE (30°)3.5 mphClear
2:53 PM32.0 °F21.0 °F64 %30.18 in10.0 miENE (60°)3.5 mphClear
3:53 PM30.9 °F19.9 °F64 %30.17 in10.0 miESE (110°)5.8 mphClear
4:53 PM28.9 °F19.9 °F69 %30.17 in10.0 miEast (100°)3.5 mphClear
5:53 PM30.0 °F21.0 °F69 %30.15 in10.0 miSSE (150°)12.7 mphClear
6:53 PM27.0 °F18.0 °F69 %30.15 in10.0 miSSE (150°)9.2 mphClear
7:53 PM26.1 °F17.1 °F69 %30.14 in10.0 miSSE (160°)10.4 mphClear
8:53 PM24.1 °F16.0 °F71 %30.11 in10.0 miSSE (150°)11.5 mphClear
9:53 PM21.9 °F15.1 °F75 %30.09 in10.0 miSouth (170°)15.0 mph27.6 mphClear
10:53 PM21.9 °F15.1 °F75 %30.06 in10.0 miSouth (170°)21.9 mph33.4 mphClear
11:53 PM21.9 °F14.0 °F72 %30.05 in10.0 miSSE (160°)16.1 mph21.9 mphClear
Hourly data recorded from KGCC, located miles away from Moorcroft, Wyoming







STORIES FROM OUR PARTNERS